DECAYED

STARLINK-4381, 53222 (Decayed)

Orbit data source: Space-Track

STARLINK-4381, 53222 was a payload satellite owned by SpaceX/Seattle (US) in LEO that was launched on Fri, 22 Jul 2022 UTC via an FALCON 9 launch vehicle from the Air Force Western Test Range (AFWTR). Payload-class satellites include a variety of spacecraft equipped with specific instruments for various scientific and technological missions. These include communications satellites like Starlink; space stations such as the ISS; scientific satellites like the Hubble; Earth observation satellites from companies like Planet Labs, Umbra, and HawkEye 360; GPS; miniature CubeSats for education and research; and military/defense satellites.

Not visible in the next 10 days
Identifier
53222, 2022-084AK
Orbit
Decayed
Country
Flag of USUS
Related business
Manufacturer
SpaceX/Seattle
Mission
Decayed Commercial Communications
Bus & Motor
STARLINK, Unknown motor
Mass
297 kg wet, ~275 kg dry
Launch date (UTC)
2022-07-22 (4 years ago)
Launch vehicle
FALCON 9
Launch site
Air Force Western Test Range (AFWTR)
Object type
Payload
Rocket body
Debris
Shape & HBR
Box + 1 Pan, 10.1 m
Radar Cross Section
13.562 m², Large (>1 m²)

Expand to show TLE details & history
Last TLE update: 1 year ago

TLE from 1 year ago
0 STARLINK-4381
1 53222U 22084AK  25101.59953059  .24233195  24446-5  10000-3 0  9992
2 53222  97.6225 170.0802 0037034 234.6705 267.7981 16.54933179150249
Epoch: 2025-04-11T14:23Z
TLE epoch observation values (Epoch: 2025-04-11T14:23:19.442Z)
Latitude
37.64848°
Longitude
-59.91453°
Altitude
132.792 km
Speed
7.83 km/s
True Right ascension
23h 43m 53s
True Declination
37° 27' 59"
Sunlit
Object was in daylight at epoch
Visualization orbit readout
Latitude
Unknown
Longitude
Unknown
Altitude
Unknown
Speed
Unknown
Apparent Right ascension
Unknown
Apparent Declination
Unknown
Sunlit
N/A
Visualization observer readout
Local Sidereal Time
21:29:52
Azimuth
Unknown
Elevation
Unknown
Doppler factor
Unknown
Orbital elements
Apogee altitude
147.253 km
Perigee altitude
99.099 km
Semi-major axis
6,501.313 km
Eccentricity
0.0037
Inclination
97.6225°
RAAN
170.0802°
Arg. of periapsis
234.6705°
True anomaly
267.37411°
Mean anomaly
267.7981°
Eccentric anomaly
267.5861°
Mean motion
4.14039 °/min
Orbital period
86.95 mins
BSTAR
0.0001
Loading maneuver chart data...
Computing Atmospheric mass density...
Loading historical data...
Loading historical data...
Loading historical data...
Loading historical data...
Loading historical data...
Loading historical data...
Loading historical data...

Documentation

Showing up to 5 results
|